[[{"header":{"parameterUnit":"m.s-1","parameterCategory":2,"la1":30.2991,"la2":30.254,"lo1":-89.0895,"lo2":-89.0444,"dy":0.0017,"dx":0.0017,"nx":28,"ny":28,"refTime":"2024-05-22T09:00:00:Z","depth":"0","parameterNumber":2,"parameterNumberName":"U-component_of_CURRENTS"},"data":[0,0,0,0,0,0,0,0,0,0,0,0,0,0,0,0,0,0,0,0,0,0,0,0,0,0,0,0,0,0,0,0,0,0,0,0,0,0,0,0,0,0,0,0,0,0,0,0,0,0,0,0,0,0,0,0,0,0,0.3362,0.3363,0,0.3396,0.3396,0.3397,0.3384,0.3383,0.3382,0.3382,0.3386,0.3386,0.3387,0,0,0,0,0,0,0,0,0,0,0,0,0,0.3315,0.3316,0.3362,0.3363,0.3364,0.3396,0.3396,0.3397,0.3384,0.3383,0.3382,0.3382,0.3386,0.3386,0.3387,0,0,0,0,0,0,0,0,0,0,0,0,0,0.3339,0.3316,0.3362,0.3363,0.3363,0.3396,0.3396,0.3397,0.3384,0.3383,0.3382,0.3381,0.3385,0.3386,0.3387,0.3411,0,0,0.339,0.3391,0,0,0,0,0,0,0,0,0.3338,0.3341,0.3362,0.3363,0.3363,0.3387,0.3382,0.3401,0.3384,0.3374,0.3382,0.3381,0.3385,0.3386,0.3392,0.3411,0.3411,0.339,0.3391,0.3391,0.3392,0,0,0,0,0,0,0,0.3336,0.3339,0.3374,0.3363,0.3364,0.3371,0.3373,0.3385,0.3382,0.3375,0.3374,0.3382,0.3385,0.3391,0.3392,0.3412,0.339,0.3391,0.3392,0.3392,0.3495,0.3497,0,0,0,0,0,0,0.3336,0.3338,0.3373,0.3375,0.335,0.3373,0.3375,0.3378,0.3382,0.3383,0.3382,0.3381,0.339,0.3391,0.3392,0.3445,0.3391,0.3392,0.3393,0.3493,0.3495,0.3498,0,0,0,0,0,0,0.3335,0.3338,0.3371,0.3359,0.3364,0.3374,0.3379,0.3379,0.339,0.3389,0.3388,0.3393,0.3389,0.3391,0.3419,0.3443,0.3393,0.3394,0.349,0.3494,0.3497,0.3534,0,0,0,0,0,0,0.3333,0.3338,0.3341,0.3359,0.3365,0.3397,0.338,0.3381,0.3397,0.3395,0.3398,0.3397,0.3389,0.3418,0.342,0.3444,0.3394,0.3488,0.3492,0.3495,0.353,0.3538,0.3545,0,0,0,0,0,0.3331,0.3341,0.3341,0.3345,0.3368,0.3399,0.3402,0.3405,0.3398,0.341,0.3418,0.3397,0.3445,0.3421,0.3423,0.3447,0.3486,0.3491,0.3495,0.3527,0.3536,0.3545,0,0,0,0,0,0,0.3322,0.3341,0.3341,0.3356,0.3379,0.3397,0.341,0.3414,0.343,0.3428,0.3421,0.3422,0.346,0.3456,0.3429,0.3493,0.3464,0.3469,0.3487,0.3496,0.3504,0.3523,0.3395,0,0,0,0,0,0.3323,0.3334,0.3357,0.337,0.3382,0.3398,0.3411,0.3417,0.3434,0.3439,0.3442,0.3456,0.3483,0.3489,0.3508,0.3539,0.3566,0.356,0.3567,0.3573,0.3594,0.3663,0.3678,0.3513,0.3513,0.3513,0,0,0.3322,0.3336,0.3341,0.3369,0.3385,0.3414,0.3403,0.3429,0.3456,0.3438,0.3471,0.3483,0.35,0.3537,0.3553,0.3533,0.3635,0.3579,0.3584,0.3602,0.367,0.3686,0.37,0.3517,0.3516,0.3516,0,0,0.3333,0.3342,0.3357,0.338,0.3411,0.3429,0.344,0.3465,0.3477,0.3511,0.3516,0.3549,0.3569,0.3597,0.3611,0.3676,0.3677,0.3676,0.3721,0.3788,0.3802,0.3814,0.3868,0.3885,0.3673,0.3674,0.3674,0,0.3333,0.3351,0.3368,0.3395,0.3414,0.3439,0.3464,0.3493,0.3525,0.355,0.3525,0.3602,0.3603,0.3678,0.3696,0.3692,0.3727,0.3678,0.3797,0.381,0.3822,0.3874,0.3892,0.3676,0.3676,0.3675,0.3675,0,0.3357,0.3374,0.339,0.3429,0.3457,0.3484,0.3525,0.3559,0.3572,0.36,0.3668,0.3683,0.3729,0.3735,0.3729,0.3825,0.382,0.38,0.3769,0.3841,0.3891,0.3909,0.3679,0.3679,0.3678,0.3677,0,0,0.3345,0.3394,0.3398,0.3423,0.3473,0.3503,0.3559,0.3621,0.3678,0.3702,0.3769,0.3814,0.3828,0.3849,0.3856,0.3907,0.4009,0.389,0.3892,0.3935,0.4158,0.4105,0.4119,0.4008,0.4012,0.4014,0.4157,0,0.3356,0.3402,0.3424,0.3478,0.3508,0.355,0.3606,0.367,0.3721,0.3796,0.3835,0.3902,0.3872,0.39,0.395,0.4011,0.4061,0.3973,0.409,0.4094,0.4031,0.414,0.3998,0.4109,0.4174,0.4178,0.418,0,0.3367,0.3399,0.3442,0.3511,0.3529,0.357,0.3671,0.3727,0.384,0.3881,0.3956,0.399,0.4089,0.4035,0.418,0.4127,0.4149,0.4178,0.4184,0.4137,0.4076,0.405,0.4139,0.4049,0.4208,0.4206,0.4204,0,0.3354,0.3412,0.3445,0.3467,0.3551,0.3587,0.3643,0.3754,0.3829,0.3951,0.4029,0.412,0.4204,0.4249,0.4304,0.4255,0.4453,0.4387,0.436,0.4356,0.4262,0.4243,0.4271,0.4481,0.448,0.448,0.448,0,0.3357,0.3386,0.3446,0.3469,0.3535,0.3592,0.3688,0.3764,0.3894,0.4003,0.408,0.4189,0.4268,0.4373,0.437,0.4447,0.4511,0.4407,0.4406,0.4269,0.425,0.4186,0.4144,0.4485,0.4484,0.4483,0.4482,0,0.3345,0.3374,0.3427,0.3506,0.353,0.3588,0.3712,0.379,0.3925,0.4074,0.4121,0.4299,0.4435,0.4498,0.4604,0.4563,0.4488,0.4603,0.4433,0.4408,0.4251,0.4216,0.4085,0.3962,0.4597,0.4597,0.4597,0,0.3343,0.3366,0.3445,0.3479,0.3515,0.3599,0.3655,0.3786,0.3873,0.4132,0.42,0.4401,0.4497,0.4656,0.463,0.4645,0.4498,0.4512,0.4379,0.4261,0.4222,0.4019,0.3909,0.4273,0.427,0.4268,0.4266,0,0.3353,0.3379,0.3425,0.3479,0.3534,0.3594,0.3685,0.3753,0.3919,0.4055,0.4237,0.4342,0.4526,0.4497,0.4544,0.4518,0.4298,0.4462,0.4395,0.4032,0.3761,0.3634,0.4157,0.4245,0.4248,0.4249,0.425,0.4251,0.3362,0.3385,0.3429,0.3469,0.3524,0.3549,0.3554,0.3657,0.376,0.3892,0.4107,0.4188,0.4327,0.4368,0.4331,0.421,0.4153,0.4078,0.4068,0.3889,0.369,0.4166,0.4209,0.4211,0.4213,0.4214,0.4215,0,0.3345,0.3358,0.3408,0.3426,0.3425,0.3477,0.353,0.3495,0.3524,0.3699,0.3803,0.392,0.3919,0.3991,0.3992,0.386,0.3629,0.375,0.3447,0.3376,0.3872,0.3779,0.3663,0.3664,0.3664,0.3664,0.3664,0.3664,0.3338,0.3341,0.3337,0.3295,0.33,0.3234,0.3219,0.319,0.3247,0.3273,0.3327,0.344,0.3704,0.3802,0.3706,0.3605,0.3331,0.3159,0.3141,0.3534,0.3562,0.3589,0.3491,0.3318,0.3317,0.2477,0.2472,0.2467]},{"header":{"parameterUnit":"m.s-1","parameterCategory":2,"la1":30.2991,"la2":30.254,"lo1":-89.0895,"lo2":-89.0444,"dy":0.0017,"dx":0.0017,"nx":28,"ny":28,"refTime":"2024-05-22T09:00:00:Z","depth":"0","parameterNumber":3,"parameterNumberName":"V-component_of_CURRENTS"},"data":[0,0,0,0,0,0,0,0,0,0,0,0,0,0,0,0,0,0,0,0,0,0,0,0,0,0,0,0,0,0,0,0,0,0,0,0,0,0,0,0,0,0,0,0,0,0,0,0,0,0,0,0,0,0,0,0,0,0,0.0299,0.0299,0,0.0243,0.0242,0.0241,0.0194,0.0194,0.0194,0.0194,0.0105,0.0103,0.0101,0,0,0,0,0,0,0,0,0,0,0,0,0,0.0298,0.0298,0.0299,0.0299,0.0298,0.0243,0.0242,0.0241,0.0194,0.0194,0.0194,0.0193,0.0106,0.0104,0.0101,0,0,0,0,0,0,0,0,0,0,0,0,0,0.0274,0.0299,0.0299,0.027,0.0267,0.0243,0.0242,0.0241,0.0194,0.0194,0.0194,0.0193,0.0107,0.0104,0.0101,0.0089,0,0,0.0091,0.009,0,0,0,0,0,0,0,0,0.0275,0.0273,0.0275,0.0272,0.0269,0.0228,0.0209,0.0189,0.0195,0.0219,0.0194,0.0193,0.0145,0.0139,0.0126,0.0085,0.0081,0.0091,0.0089,0.0088,0.0087,0,0,0,0,0,0,0,0.0277,0.0275,0.0274,0.0275,0.0271,0.0237,0.0233,0.0205,0.0183,0.0217,0.0214,0.0212,0.0143,0.0129,0.0124,0.008,0.0091,0.0088,0.0086,0.0085,0.0027,0.0028,0,0,0,0,0,0,0.0293,0.0277,0.0276,0.0273,0.0274,0.0238,0.0233,0.0239,0.0183,0.0176,0.0213,0.021,0.0135,0.0127,0.012,0.0126,0.0088,0.0085,0.0083,0.0027,0.0027,0.0028,0,0,0,0,0,0,0.0294,0.0294,0.0278,0.0275,0.0271,0.0239,0.0245,0.0238,0.0229,0.0181,0.0172,0.0212,0.0134,0.0125,0.0102,0.0121,0.0083,0.008,0.0026,0.0027,0.0028,0.0123,0,0,0,0,0,0,0.0294,0.0295,0.0302,0.0277,0.0272,0.0277,0.0245,0.0238,0.023,0.0226,0.0177,0.0168,0.0133,0.0107,0.0099,0.0116,0.0078,0.0026,0.0027,0.0027,0.012,0.0127,0.0133,0,0,0,0,0,0.0294,0.0314,0.0303,0.0302,0.0284,0.0278,0.0272,0.0245,0.023,0.0234,0.0198,0.017,0.0106,0.0105,0.0096,0.0112,0.0026,0.0027,0.0027,0.0116,0.0125,0.0133,0,0,0,0,0,0,0.0314,0.031,0.0298,0.0314,0.0301,0.0271,0.0271,0.0254,0.0228,0.0223,0.0175,0.0164,0.0151,0.0116,0.0117,0.0096,0.0061,0.006,0.0132,0.014,0.0147,0.0171,0.0075,0,0,0,0,0,0.0323,0.0338,0.0322,0.0333,0.0331,0.0302,0.0295,0.0279,0.0255,0.0243,0.0209,0.0172,0.0146,0.0131,0.0099,0.009,0.0055,0.0093,0.01,0.0106,0.0118,0.0083,0.0089,0.003,0.003,0.003,0,0,0.0333,0.0333,0.0339,0.0338,0.0324,0.0335,0.0296,0.0295,0.0305,0.0238,0.0236,0.0195,0.0147,0.0137,0.0128,0.0112,0.0102,0.0107,0.0113,0.0121,0.0085,0.0091,0.0096,0.0031,0.0031,0.0031,0,0,0.0366,0.036,0.0385,0.0381,0.0374,0.036,0.0366,0.0343,0.0333,0.0323,0.0281,0.0254,0.021,0.0185,0.0165,0.0189,0.0139,0.0176,0.0234,0.02,0.0205,0.0209,0.017,0.0169,0.0181,0.0181,0.0182,0,0.0374,0.0408,0.0389,0.041,0.0419,0.038,0.0409,0.0393,0.0366,0.037,0.0335,0.028,0.0235,0.0232,0.0236,0.0207,0.0177,0.021,0.0211,0.0214,0.0217,0.0175,0.0174,0.0186,0.0186,0.0185,0.0185,0,0.0426,0.045,0.0464,0.0483,0.0488,0.0506,0.049,0.0489,0.0468,0.0454,0.0442,0.0374,0.0346,0.0323,0.0284,0.0286,0.0255,0.0225,0.0197,0.0229,0.0182,0.0179,0.0193,0.0191,0.019,0.0189,0,0,0.0455,0.0496,0.0501,0.0533,0.0533,0.0551,0.0564,0.0579,0.0612,0.0555,0.0587,0.0514,0.0477,0.0452,0.0397,0.0362,0.0341,0.0307,0.0303,0.028,0.0265,0.0245,0.0238,0.0314,0.0314,0.0314,0.0225,0,0.0503,0.0572,0.0575,0.0641,0.0679,0.0659,0.0688,0.0692,0.0683,0.07,0.0625,0.0623,0.0528,0.052,0.0469,0.0387,0.0337,0.0368,0.0227,0.0223,0.0211,0.0236,0.0262,0.0186,0.0221,0.0221,0.022,0,0.0556,0.0601,0.068,0.0747,0.0763,0.0797,0.0852,0.0874,0.0876,0.0869,0.0837,0.0776,0.072,0.063,0.049,0.0516,0.0396,0.0314,0.0308,0.0256,0.0198,0.0158,0.0178,-0.0,0.0214,0.0215,0.0215,0,0.0607,0.0677,0.0753,0.0772,0.0834,0.0874,0.0908,0.0932,0.0988,0.0982,0.1022,0.0916,0.0899,0.0732,0.0545,0.0519,0.0391,0.033,0.0192,0.0188,0.0167,0.0162,0.001,0.0217,0.0218,0.0218,0.0218,0,0.0667,0.0727,0.0792,0.0836,0.0947,0.0955,0.1071,0.1086,0.114,0.1244,0.1123,0.1173,0.0926,0.0818,0.0606,0.0406,0.0429,0.0211,0.0171,0.02,0.0199,0.0007,-0.0098,0.0214,0.0215,0.0216,0.0216,0,0.072,0.0753,0.0855,0.0941,0.098,0.1064,0.1194,0.1281,0.1312,0.1443,0.1448,0.1379,0.123,0.0968,0.0714,0.0519,0.0194,0.0214,0.0262,0.0229,-0.0076,-0.0176,-0.0383,-0.0472,0.0045,0.0044,0.0043,0,0.0759,0.0816,0.0942,0.1022,0.1074,0.1197,0.1296,0.1363,0.1471,0.1587,0.1666,0.1561,0.1519,0.1133,0.0744,0.0366,0.0167,0.0152,0.0094,-0.0079,-0.0221,-0.03,-0.0366,0.0094,0.0094,0.0094,0.0094,0,0.0844,0.0886,0.0974,0.1128,0.1252,0.1395,0.1542,0.1653,0.1762,0.188,0.2003,0.1975,0.1615,0.1252,0.0736,0.0467,0.0034,0.0135,-0.0055,-0.0198,-0.0284,-0.0391,0.0129,0.0092,0.0092,0.0092,0.0092,0.0092,0.0916,0.0992,0.1104,0.1251,0.1395,0.1574,0.1704,0.1873,0.2066,0.2246,0.2224,0.2229,0.1735,0.1026,0.0649,0.001,-0.0019,-0.0184,-0.0292,-0.0358,-0.0438,0.0078,0.0002,0.0002,0.0002,0.0002,0.0001,0,0.0998,0.108,0.122,0.1398,0.1555,0.1617,0.1856,0.1997,0.2237,0.2391,0.2478,0.2246,0.1627,0.0997,0.0142,-0.0314,-0.0486,-0.0563,-0.0672,-0.0723,-0.0267,-0.0257,-0.0379,-0.0378,-0.0378,-0.0378,-0.0378,-0.0378,0.1049,0.1177,0.1237,0.1491,0.1622,0.1839,0.1976,0.2198,0.2355,0.2533,0.2551,0.2517,0.2084,0.0568,-0.046,-0.0711,-0.1005,-0.1084,-0.1248,-0.0938,-0.0911,-0.0885,-0.09,-0.1154,-0.1155,-0.1637,-0.1642,-0.1646]}],[{"header":{"parameterUnit":"m.s-1","parameterCategory":2,"la1":30.2991,"la2":30.254,"lo1":-89.0895,"lo2":-89.0444,"dy":0.0017,"dx":0.0017,"nx":28,"ny":28,"refTime":"2024-05-22T09:00:00:Z","depth":"2","parameterNumber":2,"parameterNumberName":"U-component_of_CURRENTS"},"data":[0,0,0,0,0,0,0,0,0,0,0,0,0,0,0,0,0,0,0,0,0,0,0,0,0,0,0,0,0,0,0,0,0,0,0,0,0,0,0,0,0,0,0,0,0,0,0,0,0,0,0,0,0,0,0,0,0,0,0.3126,0.3126,0,0.316,0.316,0.316,0.316,0.3159,0.3159,0.3159,0.3174,0.3175,0.3175,0,0,0,0,0,0,0,0,0,0,0,0,0,0.3078,0.3079,0.3126,0.3126,0.3127,0.316,0.316,0.316,0.316,0.3159,0.3159,0.3159,0.3174,0.3174,0.3175,0,0,0,0,0,0,0,0,0,0,0,0,0,0.3102,0.3079,0.3126,0.3132,0.3133,0.316,0.316,0.3161,0.316,0.3159,0.3159,0.3159,0.3173,0.3174,0.3175,0.3189,0,0,0.3178,0.3179,0,0,0,0,0,0,0,0,0.3101,0.3103,0.3131,0.3132,0.3133,0.3157,0.3149,0.317,0.316,0.3147,0.3159,0.3158,0.3168,0.317,0.3174,0.319,0.319,0.3178,0.3179,0.3179,0.318,0,0,0,0,0,0,0,0.3099,0.3102,0.3137,0.3131,0.3133,0.314,0.3143,0.3153,0.3157,0.3148,0.3149,0.3157,0.3168,0.3173,0.3174,0.3191,0.3178,0.3179,0.318,0.318,0.3279,0.3281,0,0,0,0,0,0,0.3099,0.3101,0.3136,0.3138,0.3118,0.3141,0.3144,0.3148,0.3158,0.316,0.3157,0.3156,0.3172,0.3173,0.3175,0.3233,0.3179,0.318,0.3181,0.3277,0.3279,0.3282,0,0,0,0,0,0,0.3098,0.3102,0.3135,0.3122,0.3127,0.3143,0.3147,0.3149,0.3166,0.3165,0.3166,0.3173,0.3171,0.3173,0.3204,0.3232,0.3181,0.3182,0.3274,0.3278,0.328,0.3323,0,0,0,0,0,0,0.3096,0.3101,0.3107,0.3122,0.3128,0.316,0.3148,0.315,0.3171,0.3171,0.3179,0.318,0.3171,0.3203,0.3205,0.3232,0.3182,0.3272,0.3276,0.3279,0.3319,0.3327,0.3334,0,0,0,0,0,0.3094,0.3104,0.3107,0.3112,0.3135,0.3161,0.3165,0.3173,0.3173,0.3186,0.3197,0.318,0.3229,0.3205,0.3207,0.3235,0.327,0.3275,0.3279,0.3315,0.3325,0.3334,0,0,0,0,0,0,0.3086,0.3105,0.3109,0.3124,0.3146,0.3162,0.3177,0.3184,0.3203,0.3206,0.3201,0.3203,0.3244,0.3239,0.3213,0.3279,0.3249,0.3254,0.3276,0.3285,0.3292,0.331,0.3183,0,0,0,0,0,0.3088,0.31,0.3122,0.3136,0.3149,0.3167,0.318,0.3189,0.3207,0.3215,0.3222,0.3238,0.3264,0.3273,0.3291,0.3321,0.3342,0.3345,0.3352,0.3358,0.3377,0.3438,0.3452,0.3297,0.3297,0.3297,0,0,0.3088,0.3102,0.3108,0.3136,0.3153,0.3181,0.3174,0.3202,0.3229,0.3214,0.3253,0.3265,0.328,0.3318,0.3336,0.3316,0.3415,0.3364,0.3369,0.3385,0.3444,0.3459,0.3472,0.33,0.3299,0.3299,0,0,0.3097,0.311,0.3124,0.3148,0.3181,0.3198,0.3212,0.3239,0.3255,0.3291,0.3298,0.3333,0.3354,0.338,0.3393,0.3457,0.3456,0.346,0.3506,0.3564,0.3577,0.3589,0.3634,0.365,0.3459,0.3459,0.3459,0,0.3099,0.3116,0.3135,0.316,0.3181,0.321,0.3235,0.3265,0.33,0.3325,0.3309,0.3384,0.3388,0.3456,0.3477,0.3473,0.3503,0.3464,0.3573,0.3586,0.3597,0.364,0.3657,0.3462,0.3461,0.3461,0.3461,0,0.3118,0.3137,0.3153,0.3193,0.3221,0.3249,0.3292,0.3329,0.3349,0.3377,0.3445,0.3462,0.3508,0.3516,0.3513,0.3603,0.3597,0.3577,0.3546,0.3615,0.3656,0.3673,0.3465,0.3464,0.3464,0.3463,0,0,0.3104,0.3153,0.3159,0.3184,0.3238,0.3266,0.3324,0.3384,0.344,0.3472,0.3536,0.3584,0.3603,0.3623,0.3632,0.3679,0.3775,0.3665,0.3667,0.3702,0.3906,0.3847,0.3858,0.3774,0.3777,0.378,0.3902,0,0.3113,0.3156,0.3179,0.3233,0.3261,0.3309,0.3365,0.3428,0.3481,0.3555,0.3596,0.3663,0.3642,0.3675,0.3722,0.3775,0.3822,0.3744,0.3841,0.3845,0.3777,0.3877,0.356,0.3638,0.3918,0.392,0.3922,0,0.312,0.315,0.3191,0.3259,0.3278,0.3322,0.3422,0.3478,0.3589,0.363,0.3706,0.3744,0.384,0.3797,0.3927,0.3881,0.3904,0.3927,0.3932,0.3876,0.3816,0.3616,0.3657,0.395,0.3947,0.3945,0.3944,0,0.31,0.3159,0.3191,0.3214,0.3297,0.3338,0.3396,0.3504,0.3567,0.3698,0.3765,0.386,0.394,0.3985,0.4039,0.3997,0.4168,0.4108,0.4075,0.407,0.3821,0.3789,0.4195,0.4195,0.4195,0.4194,0.4194,0,0.3097,0.3126,0.3191,0.3213,0.3274,0.334,0.343,0.3506,0.3626,0.3717,0.3813,0.3903,0.3997,0.4092,0.4096,0.4157,0.4219,0.4117,0.4112,0.3827,0.3796,0.4075,0.4059,0.4199,0.4198,0.4197,0.4196,0,0.3068,0.3107,0.3151,0.3234,0.3264,0.3315,0.3435,0.3503,0.3639,0.3764,0.3812,0.3982,0.4115,0.4188,0.4291,0.4251,0.429,0.4284,0.3943,0.3896,0.4133,0.4119,0.4264,0.4263,0.4263,0.4262,0.4262,0,0.3052,0.307,0.315,0.3178,0.3217,0.3302,0.3356,0.3487,0.3554,0.3797,0.3841,0.4043,0.4133,0.4282,0.4257,0.4277,0.4325,0.3985,0.3842,0.4168,0.4149,0.4135,0.4121,0.3525,0.3518,0.3513,0.3509,0,0.3022,0.3051,0.3089,0.3141,0.3195,0.3248,0.3336,0.3382,0.3548,0.366,0.381,0.3915,0.4094,0.3987,0.405,0.4002,0.3953,0.388,0.433,0.3561,0.3482,0.3459,0.3468,0.3462,0.3466,0.347,0.3472,0.3474,0.2996,0.3008,0.3054,0.3086,0.3143,0.3165,0.3164,0.3248,0.3323,0.3434,0.3636,0.3687,0.3761,0.3697,0.3589,0.3507,0.377,0.3575,0.3586,0.3604,0.3502,0.3427,0.3377,0.3381,0.3384,0.3387,0.339,0,0.2938,0.2962,0.2992,0.3004,0.2985,0.3075,0.3116,0.3065,0.3066,0.3214,0.3304,0.3114,0.3078,0.3137,0.2952,0.296,0.2874,0.2825,0.2674,0.2727,0.2773,0.262,0.2265,0.2261,0.2257,0.2253,0,0,0.2918,0.2905,0.2897,0.2824,0.2841,0.2787,0.2781,0.2728,0.276,0.2725,0.2731,0.2981,0.3089,0.2648,0.2593,0.2393,0.2528,0.2298,0.3216,0.3094,0.3134,0.324,0.3073,0,0,0,0,0]},{"header":{"parameterUnit":"m.s-1","parameterCategory":2,"la1":30.2991,"la2":30.254,"lo1":-89.0895,"lo2":-89.0444,"dy":0.0017,"dx":0.0017,"nx":28,"ny":28,"refTime":"2024-05-22T09:00:00:Z","depth":"2","parameterNumber":3,"parameterNumberName":"V-component_of_CURRENTS"},"data":[0,0,0,0,0,0,0,0,0,0,0,0,0,0,0,0,0,0,0,0,0,0,0,0,0,0,0,0,0,0,0,0,0,0,0,0,0,0,0,0,0,0,0,0,0,0,0,0,0,0,0,0,0,0,0,0,0,0,0.0186,0.0185,0,0.0134,0.0133,0.0132,0.009,0.009,0.009,0.0089,0.0008,0.0006,0.0004,0,0,0,0,0,0,0,0,0,0,0,0,0,0.0183,0.0184,0.0186,0.0185,0.0185,0.0134,0.0133,0.0132,0.009,0.009,0.0089,0.0089,0.0009,0.0006,0.0004,0,0,0,0,0,0,0,0,0,0,0,0,0,0.0161,0.0184,0.0186,0.016,0.0157,0.0134,0.0133,0.0132,0.009,0.009,0.0089,0.0089,0.001,0.0007,0.0004,-0.0008,0,0,-0.0005,-0.0007,0,0,0,0,0,0,0,0,0.0163,0.0161,0.0164,0.0161,0.0158,0.012,0.0102,0.0084,0.009,0.0113,0.0089,0.0089,0.0045,0.0039,0.0027,-0.0012,-0.0015,-0.0005,-0.0007,-0.0009,-0.0009,0,0,0,0,0,0,0,0.0164,0.0163,0.0163,0.0164,0.016,0.0128,0.0125,0.0098,0.0079,0.0111,0.0108,0.0106,0.0043,0.003,0.0024,-0.0017,-0.0005,-0.0008,-0.001,-0.0011,-0.0064,-0.0063,0,0,0,0,0,0,0.0179,0.0165,0.0164,0.0161,0.0162,0.0129,0.0125,0.0131,0.008,0.0072,0.0107,0.0105,0.0035,0.0028,0.0021,0.0029,-0.0009,-0.0011,-0.0013,-0.0064,-0.0064,-0.0063,0,0,0,0,0,0,0.018,0.018,0.0167,0.0163,0.0159,0.013,0.0136,0.013,0.0123,0.0077,0.0069,0.0107,0.0034,0.0026,0.0005,0.0025,-0.0013,-0.0015,-0.0065,-0.0064,-0.0063,0.0029,0,0,0,0,0,0,0.018,0.0181,0.0188,0.0165,0.016,0.0165,0.0136,0.0129,0.0123,0.012,0.0075,0.0067,0.0033,0.001,0.0002,0.002,-0.0018,-0.0065,-0.0064,-0.0064,0.0025,0.0032,0.0038,0,0,0,0,0,0.018,0.0199,0.0189,0.0189,0.0172,0.0166,0.0161,0.0137,0.0124,0.0128,0.0095,0.0068,0.0009,0.0008,-0.0001,0.0016,-0.0065,-0.0064,-0.0064,0.0022,0.0031,0.0038,0,0,0,0,0,0,0.0198,0.0196,0.0184,0.02,0.0188,0.0161,0.0161,0.0145,0.0122,0.0118,0.0073,0.0063,0.0052,0.0019,0.0019,0.0001,-0.0033,-0.0034,0.0036,0.0043,0.005,0.0071,-0.002,0,0,0,0,0,0.0208,0.0222,0.0208,0.0218,0.0217,0.019,0.0184,0.017,0.0148,0.0137,0.0106,0.0072,0.0047,0.0034,0.0004,-0.0004,-0.004,-0.0,0.0006,0.0012,0.0022,-0.0016,-0.0012,-0.006,-0.006,-0.006,0,0,0.0217,0.0217,0.0223,0.0223,0.021,0.0221,0.0185,0.0186,0.0195,0.0132,0.0132,0.0094,0.0049,0.004,0.0032,0.0017,0.0006,0.0014,0.0019,0.0026,-0.0015,-0.001,-0.0006,-0.006,-0.006,-0.006,0,0,0.0247,0.0244,0.0267,0.0264,0.0258,0.0246,0.0252,0.0232,0.0224,0.0216,0.0176,0.0151,0.0111,0.0087,0.0068,0.0092,0.0042,0.0081,0.0135,0.0098,0.0102,0.0105,0.0066,0.0065,0.0086,0.0086,0.0086,0,0.0256,0.0287,0.027,0.0291,0.03,0.0265,0.0293,0.0279,0.0255,0.0257,0.0228,0.0175,0.0135,0.013,0.0136,0.0109,0.0078,0.0112,0.0108,0.011,0.0112,0.0071,0.0069,0.0091,0.009,0.009,0.0089,0,0.0304,0.0327,0.0341,0.0361,0.0366,0.0384,0.0371,0.037,0.0352,0.0338,0.0325,0.0264,0.0236,0.0217,0.0183,0.0181,0.0151,0.0122,0.0094,0.0123,0.0077,0.0073,0.0097,0.0096,0.0094,0.0093,0,0,0.0331,0.037,0.0375,0.0405,0.0409,0.0425,0.044,0.0453,0.048,0.0431,0.0452,0.0392,0.0358,0.0334,0.0284,0.0247,0.0226,0.0197,0.0193,0.0169,0.0143,0.0117,0.0109,0.0197,0.0197,0.0197,0.0107,0,0.0375,0.0439,0.0444,0.0506,0.0541,0.0525,0.0552,0.0555,0.0546,0.0555,0.0486,0.0481,0.0404,0.0396,0.0347,0.0264,0.0219,0.0253,0.0109,0.0105,0.0087,0.0105,0.0131,0.0053,0.0103,0.0102,0.0102,0,0.0424,0.0465,0.0539,0.0601,0.0615,0.0648,0.0696,0.0716,0.071,0.0701,0.0669,0.0614,0.056,0.0485,0.035,0.0376,0.027,0.0189,0.0184,0.0126,0.0072,0.0029,0.0043,0.0094,0.0094,0.0095,0.0096,0,0.0467,0.0534,0.0603,0.0622,0.0679,0.0717,0.0748,0.0766,0.0807,0.0799,0.0821,0.073,0.0707,0.0558,0.0389,0.0371,0.0232,0.0184,0.0054,0.0051,0.0028,0.0023,0.008,0.008,0.008,0.008,0.0081,0,0.052,0.0575,0.0636,0.0676,0.0773,0.0786,0.0885,0.0896,0.0932,0.1008,0.0909,0.0933,0.0725,0.0618,0.0434,0.0243,0.0263,0.007,0.003,0.0059,0.0058,0.0057,0.0055,0.0077,0.0078,0.0079,0.0079,0,0.0561,0.0596,0.0685,0.0764,0.0801,0.0872,0.0983,0.1051,0.1072,0.1165,0.1167,0.1092,0.0957,0.0732,0.0502,0.0326,0.0126,0.0046,0.0094,0.0061,-0.0047,-0.0043,-0.0108,-0.011,-0.0111,-0.0112,-0.0113,0,0.0591,0.064,0.0753,0.082,0.0868,0.0976,0.1059,0.1116,0.1197,0.1272,0.1321,0.1225,0.1179,0.0824,0.0492,0.0168,0.0122,-0.0029,-0.0066,-0.0032,-0.0065,-0.0058,-0.0053,-0.0066,-0.0067,-0.0067,-0.0068,0,0.0648,0.0686,0.0762,0.0898,0.1004,0.1128,0.125,0.1331,0.1419,0.1496,0.1569,0.1538,0.1227,0.0908,0.0468,0.0241,0.0022,-0.0048,-0.0018,-0.0018,0.0001,-0.0029,-0.0023,-0.0071,-0.0071,-0.007,-0.007,-0.007,0.0694,0.0756,0.0858,0.0987,0.1113,0.1266,0.1377,0.1502,0.1644,0.1772,0.1739,0.1706,0.136,0.0795,0.0405,-0.001,0.001,-0.0144,-0.014,-0.0137,-0.0111,-0.0095,-0.0181,-0.0181,-0.0181,-0.0181,-0.0181,0,0.0752,0.0827,0.0942,0.1097,0.1225,0.1301,0.1499,0.1602,0.1775,0.1886,0.1942,0.1607,0.1258,0.0845,0.0238,-0.0119,-0.0149,-0.0244,-0.0197,-0.019,-0.0185,-0.016,-0.0245,-0.0246,-0.0247,-0.0248,0,0,0.0791,0.09,0.0953,0.116,0.1278,0.1472,0.1595,0.1747,0.1861,0.1956,0.1948,0.19,0.1402,0.0951,0.0462,0.011,0.004,0.0033,0.0124,0.0245,0.0254,-0.0087,-0.0037,0,0,0,0,0]}],[{"header":{"parameterUnit":"m.s-1","parameterCategory":2,"la1":30.2991,"la2":30.254,"lo1":-89.0895,"lo2":-89.0444,"dy":0.0017,"dx":0.0017,"nx":28,"ny":28,"refTime":"2024-05-22T09:00:00:Z","depth":"4","parameterNumber":2,"parameterNumberName":"U-component_of_CURRENTS"},"data":[0,0,0,0,0,0,0,0,0,0,0,0,0,0,0,0,0,0,0,0,0,0,0,0,0,0,0,0,0,0,0,0,0,0,0,0,0,0,0,0,0,0,0,0,0,0,0,0,0,0,0,0,0,0,0,0,0,0,0.2074,0.2075,0,0.2151,0.2151,0.2152,0.2219,0.222,0.2221,0.2221,0.2315,0.2317,0.2319,0,0,0,0,0,0,0,0,0,0,0,0,0,0.1982,0.1983,0.2074,0.2075,0.2076,0.215,0.2151,0.2152,0.2218,0.222,0.2221,0.2222,0.2315,0.2317,0.2319,0,0,0,0,0,0,0,0,0,0,0,0,0,0.2034,0.1984,0.2074,0.212,0.2125,0.215,0.2151,0.2152,0.2218,0.222,0.2221,0.2222,0.2314,0.2317,0.2319,0.2305,0,0,0.2326,0.2327,0,0,0,0,0,0,0,0,0.2031,0.2037,0.2112,0.2117,0.2122,0.2178,0.2154,0.2205,0.2218,0.218,0.2221,0.2223,0.2272,0.2278,0.2285,0.231,0.2314,0.2327,0.2328,0.2329,0.233,0,0,0,0,0,0,0,0.2028,0.2035,0.2102,0.2113,0.2119,0.2136,0.2145,0.2163,0.2216,0.2184,0.2189,0.2201,0.2274,0.2283,0.2288,0.2315,0.2327,0.2329,0.233,0.2331,0.2473,0.2475,0,0,0,0,0,0,0.2021,0.2031,0.21,0.2104,0.2082,0.2137,0.2146,0.2157,0.2215,0.2226,0.22,0.2204,0.2278,0.2285,0.2292,0.2398,0.2329,0.2331,0.2333,0.2471,0.2473,0.2476,0,0,0,0,0,0,0.2019,0.2027,0.2097,0.2071,0.2082,0.2137,0.2148,0.2158,0.2213,0.2227,0.2238,0.225,0.2279,0.2288,0.2351,0.2398,0.2332,0.2335,0.2468,0.2471,0.2475,0.2534,0,0,0,0,0,0,0.2016,0.2025,0.2052,0.2071,0.2083,0.2139,0.2148,0.2159,0.2216,0.2223,0.2273,0.2281,0.2281,0.2347,0.2353,0.24,0.2337,0.2465,0.2469,0.2474,0.2529,0.2539,0.2548,0,0,0,0,0,0.2012,0.2033,0.2052,0.2062,0.211,0.2141,0.2149,0.2191,0.2218,0.2245,0.2286,0.2282,0.238,0.2351,0.2357,0.2406,0.2463,0.2468,0.2473,0.2525,0.2537,0.2547,0,0,0,0,0,0,0.2009,0.2043,0.2064,0.2097,0.2132,0.2154,0.219,0.2216,0.2268,0.2292,0.2305,0.2315,0.2389,0.2391,0.2359,0.2462,0.2423,0.243,0.2461,0.2472,0.2481,0.249,0.2339,0,0,0,0,0,0.2019,0.2049,0.2078,0.2111,0.2132,0.217,0.2198,0.2227,0.2265,0.2292,0.2327,0.2369,0.2406,0.2435,0.2464,0.2515,0.2525,0.2555,0.2564,0.2571,0.2585,0.2637,0.2652,0.2493,0.2493,0.2493,0,0,0.2028,0.2052,0.2071,0.2115,0.2148,0.2183,0.2192,0.2246,0.2288,0.2292,0.2375,0.2404,0.2429,0.249,0.2523,0.2503,0.2623,0.2578,0.2584,0.2594,0.2644,0.2659,0.2673,0.2497,0.2496,0.2495,0,0,0.2043,0.2084,0.211,0.2143,0.22,0.2223,0.2248,0.2298,0.2341,0.2406,0.2429,0.2489,0.2543,0.2573,0.2591,0.267,0.267,0.2688,0.2743,0.2793,0.2806,0.2818,0.2848,0.2862,0.2693,0.2693,0.2693,0,0.2059,0.2089,0.2124,0.2158,0.2193,0.2246,0.2282,0.2328,0.2397,0.2437,0.2447,0.2559,0.258,0.2656,0.2689,0.2691,0.2715,0.2693,0.2804,0.2816,0.2827,0.2855,0.287,0.2696,0.2696,0.2696,0.2695,0,0.2078,0.2123,0.2145,0.2204,0.2246,0.2291,0.2349,0.2413,0.2471,0.2511,0.2613,0.265,0.2717,0.2737,0.2739,0.2836,0.2826,0.2807,0.2771,0.2846,0.2871,0.2886,0.2701,0.27,0.2699,0.2698,0,0,0.2058,0.2141,0.2155,0.2194,0.2277,0.2311,0.2395,0.2473,0.2543,0.2619,0.2702,0.2779,0.2817,0.2842,0.2863,0.291,0.3006,0.2903,0.2904,0.2924,0.3119,0.2922,0.2918,0.3012,0.3015,0.3017,0.3103,0,0.2068,0.213,0.2172,0.225,0.2288,0.2366,0.2436,0.2522,0.2601,0.2696,0.2763,0.2852,0.2851,0.2904,0.2954,0.3001,0.3048,0.2984,0.3051,0.3053,0.2861,0.2929,0.3027,0.3114,0.3117,0.3119,0.3121,0,0.2066,0.2112,0.218,0.2279,0.2306,0.2369,0.2499,0.2571,0.2706,0.277,0.2871,0.2927,0.3036,0.3013,0.3135,0.3101,0.3124,0.3143,0.3146,0.2951,0.2881,0.3025,0.3146,0.3144,0.3142,0.3141,0.3139,0,0.202,0.2117,0.2175,0.221,0.2327,0.2394,0.2474,0.2606,0.2677,0.284,0.291,0.3029,0.3116,0.317,0.3226,0.32,0.3334,0.3291,0.3132,0.3119,0.3243,0.3229,0.3369,0.3368,0.3368,0.3368,0.3368,0,0.1991,0.2046,0.2172,0.2205,0.2293,0.2392,0.2503,0.2602,0.2742,0.2823,0.2961,0.3035,0.3167,0.325,0.3267,0.3244,0.3372,0.3154,0.3131,0.3265,0.3254,0.3252,0.3237,0.3371,0.337,0.337,0.3369,0,0.192,0.2004,0.2079,0.2219,0.2273,0.2344,0.2506,0.257,0.2736,0.2848,0.2908,0.3084,0.3192,0.3282,0.3381,0.3284,0.3286,0.3245,0.3396,0.3379,0.3025,0.3013,0.3061,0.3055,0.305,0.3046,0.3042,0,0.1877,0.1913,0.207,0.2116,0.2188,0.2309,0.2375,0.2548,0.2609,0.2844,0.2871,0.3057,0.3148,0.3134,0.3241,0.3257,0.3218,0.3185,0.3085,0.3022,0.2997,0.2993,0.2988,0.3034,0.3032,0.3031,0.303,0,0.179,0.1869,0.1928,0.2027,0.2112,0.2185,0.2304,0.2332,0.252,0.2695,0.2771,0.2831,0.2948,0.3012,0.3057,0.3057,0.3182,0.313,0.3139,0.3044,0.2989,0.2968,0.297,0.3012,0.3014,0.3016,0.3017,0,0.1724,0.1747,0.1839,0.1909,0.2,0.2027,0.2112,0.2184,0.2272,0.252,0.2542,0.2742,0.2919,0.2911,0.2949,0.294,0.2884,0.2762,0.2789,0.281,0.2686,0.2576,0.2463,0,0,0,0,0,0.1646,0.1656,0.1708,0.1765,0.1841,0.1902,0.2035,0.2121,0.2307,0.2291,0.2409,0.2502,0.2575,0.268,0.2621,0.2832,0.2892,0.2748,0.2764,0.2911,0.2932,0.2808,0,0,0,0,0,0,0.1592,0.1638,0.1657,0.162,0.1634,0.1701,0.1783,0.1914,0.1918,0.2124,0.2185,0.2339,0.2457,0.2588,0.2572,0.26,0.2553,0.2871,0.2864,0.29,0.2919,0.2935,0.2814,0,0,0,0,0]},{"header":{"parameterUnit":"m.s-1","parameterCategory":2,"la1":30.2991,"la2":30.254,"lo1":-89.0895,"lo2":-89.0444,"dy":0.0017,"dx":0.0017,"nx":28,"ny":28,"refTime":"2024-05-22T09:00:00:Z","depth":"4","parameterNumber":3,"parameterNumberName":"V-component_of_CURRENTS"},"data":[0,0,0,0,0,0,0,0,0,0,0,0,0,0,0,0,0,0,0,0,0,0,0,0,0,0,0,0,0,0,0,0,0,0,0,0,0,0,0,0,0,0,0,0,0,0,0,0,0,0,0,0,0,0,0,0,0,0,0.0104,0.0104,0,0.0071,0.007,0.0069,0.004,0.004,0.004,0.004,-0.002,-0.0022,-0.0023,0,0,0,0,0,0,0,0,0,0,0,0,0,0.0098,0.0099,0.0104,0.0104,0.0104,0.0071,0.007,0.0069,0.0041,0.004,0.004,0.004,-0.002,-0.0021,-0.0023,0,0,0,0,0,0,0,0,0,0,0,0,0,0.0085,0.0099,0.0104,0.0086,0.0085,0.0071,0.007,0.0069,0.0041,0.004,0.004,0.004,-0.0019,-0.0021,-0.0023,-0.0031,0,0,-0.003,-0.0031,0,0,0,0,0,0,0,0,0.0086,0.0085,0.0089,0.0088,0.0086,0.0061,0.0046,0.0035,0.0041,0.0056,0.004,0.004,0.0006,0.0001,-0.0006,-0.0034,-0.0037,-0.003,-0.0031,-0.0032,-0.0033,0,0,0,0,0,0,0,0.0087,0.0086,0.0089,0.0089,0.0087,0.0065,0.0063,0.0043,0.0031,0.0054,0.0053,0.0051,0.0004,-0.0004,-0.0008,-0.0038,-0.003,-0.0032,-0.0033,-0.0034,-0.007,-0.007,0,0,0,0,0,0,0.0097,0.0087,0.009,0.0088,0.0087,0.0065,0.0063,0.0068,0.0032,0.0026,0.0052,0.005,-0.0,-0.0005,-0.001,-0.0001,-0.0032,-0.0034,-0.0036,-0.0071,-0.007,-0.007,0,0,0,0,0,0,0.0097,0.0098,0.0092,0.0088,0.0086,0.0066,0.0071,0.0067,0.0064,0.003,0.0024,0.0053,-0.0001,-0.0007,-0.0022,-0.0004,-0.0035,-0.0037,-0.0071,-0.0071,-0.007,0.0005,0,0,0,0,0,0,0.0097,0.0098,0.0104,0.0089,0.0086,0.0093,0.0072,0.0067,0.0064,0.0062,0.0029,0.0023,-0.0001,-0.0018,-0.0024,-0.0007,-0.0039,-0.0071,-0.0071,-0.007,0.0002,0.0008,0.0013,0,0,0,0,0,0.0097,0.0112,0.0105,0.0105,0.0096,0.0094,0.0091,0.0074,0.0064,0.0068,0.0044,0.0024,-0.0018,-0.0019,-0.0026,-0.001,-0.0072,-0.0071,-0.007,-0.0,0.0007,0.0013,0,0,0,0,0,0,0.011,0.011,0.0102,0.0115,0.0108,0.009,0.0092,0.0081,0.0065,0.0062,0.0028,0.0021,0.0014,-0.0011,-0.0011,-0.002,-0.0048,-0.0049,0.0007,0.0014,0.0019,0.0033,-0.0041,0,0,0,0,0,0.0117,0.0129,0.012,0.0129,0.0129,0.0111,0.0108,0.0099,0.0083,0.0076,0.0054,0.0029,0.0011,0.0003,-0.002,-0.0023,-0.0057,-0.0018,-0.0013,-0.0008,-0.0002,-0.004,-0.0037,-0.0067,-0.0067,-0.0068,0,0,0.0124,0.0125,0.0131,0.0133,0.0125,0.0135,0.0108,0.0111,0.0121,0.0072,0.0076,0.0047,0.0013,0.0009,0.0004,-0.0008,-0.0018,-0.0007,-0.0002,0.0001,-0.0039,-0.0036,-0.0034,-0.0067,-0.0067,-0.0067,0,0,0.0147,0.0146,0.0164,0.0165,0.0162,0.0155,0.016,0.0148,0.0144,0.0141,0.011,0.0092,0.0065,0.0047,0.0034,0.0055,0.0011,0.0048,0.0091,0.0054,0.0056,0.0058,0.0018,0.0016,0.0053,0.0053,0.0054,0,0.0154,0.0178,0.0167,0.0185,0.0194,0.017,0.0193,0.0186,0.0171,0.0172,0.0152,0.0112,0.0084,0.008,0.0088,0.0069,0.0037,0.0072,0.0062,0.0063,0.0063,0.0022,0.0018,0.0057,0.0057,0.0056,0.0056,0,0.019,0.021,0.0221,0.0239,0.0247,0.0262,0.0257,0.0258,0.0247,0.0238,0.0228,0.0184,0.0162,0.015,0.0127,0.0122,0.0095,0.0073,0.0049,0.0071,0.0026,0.0021,0.0062,0.0061,0.006,0.0059,0,0,0.0205,0.0241,0.0246,0.027,0.0281,0.0294,0.0311,0.0323,0.0341,0.0309,0.0321,0.0284,0.0256,0.0239,0.0202,0.017,0.0145,0.013,0.0127,0.0098,0.006,0.0045,0.0037,0.0121,0.0121,0.012,0.0028,0,0.0238,0.0288,0.0298,0.0349,0.0376,0.0371,0.0395,0.04,0.0394,0.0396,0.0346,0.0342,0.0292,0.0286,0.0246,0.0172,0.0134,0.0172,0.0037,0.0033,0.0022,0.0032,0.0119,0.0024,0.0022,0.0021,0.0021,0,0.0272,0.0304,0.0363,0.0416,0.0428,0.0458,0.0495,0.0514,0.0507,0.0499,0.0475,0.0434,0.0391,0.034,0.0224,0.025,0.0166,0.0098,0.0092,0.0049,0.0008,-0.0005,0.0011,0.0011,0.0012,0.0013,0.0013,0,0.0295,0.0353,0.0407,0.0424,0.0474,0.0506,0.0534,0.0549,0.0578,0.0569,0.0577,0.051,0.0484,0.0369,0.0235,0.023,0.0093,0.0066,-0.0033,-0.0036,-0.0027,-0.0028,-0.0023,-0.0023,-0.0023,-0.0022,-0.0022,0,0.0328,0.0371,0.0428,0.0459,0.0533,0.0552,0.0624,0.0636,0.066,0.0703,0.0639,0.0639,0.049,0.0394,0.0257,0.0101,0.0108,-0.0024,-0.0058,0.0005,0.0009,-0.0032,-0.0031,-0.0026,-0.0025,-0.0024,-0.0024,0,0.0345,0.0379,0.0447,0.0516,0.0549,0.0602,0.0692,0.0736,0.0752,0.0801,0.0803,0.0737,0.0619,0.0453,0.0266,0.0143,-0.0016,-0.0077,0.0007,-0.0022,-0.0128,-0.0123,-0.0194,-0.0195,-0.0196,-0.0197,-0.0198,0,0.0357,0.0394,0.049,0.054,0.0581,0.0666,0.0727,0.0778,0.0829,0.0861,0.0883,0.0796,0.0728,0.0459,0.0271,0.0006,-0.0038,-0.013,-0.0134,-0.0118,-0.0145,-0.0138,-0.0131,-0.0199,-0.02,-0.02,-0.02,0,0.0379,0.0414,0.0472,0.0576,0.0658,0.0749,0.0841,0.0886,0.0947,0.0959,0.0956,0.0827,0.069,0.0474,0.0268,0.0074,-0.0075,-0.0142,-0.0142,-0.0146,-0.0126,-0.015,-0.0142,-0.0204,-0.0203,-0.0203,-0.0203,0,0.0397,0.0438,0.0517,0.0613,0.0714,0.0814,0.0859,0.0928,0.0981,0.1017,0.1012,0.087,0.0791,0.0508,0.0317,0.0128,0.007,-0.0008,-0.0015,-0.0014,0.006,0.0112,0.0083,0,0,0,0,0,0.0414,0.0467,0.0549,0.0658,0.0756,0.0822,0.093,0.0966,0.1026,0.1036,0.1031,0.0907,0.0646,0.0532,0.0341,0.0269,0.0017,0.0034,-0.0081,-0.0224,-0.022,-0.0167,0,0,0,0,0,0,0.0429,0.0504,0.0548,0.0681,0.0758,0.0875,0.0949,0.0987,0.0994,0.1021,0.089,0.0839,0.0584,0.076,0.0334,0.0276,0.0169,-0.0083,-0.0088,-0.0227,-0.0223,-0.022,-0.0163,0,0,0,0,0]}]]